リニア彗星

P/2002 EJ57 ( LINEAR )

English version
Home page
Updated on June 5, 2002

---------------------------------------------------------------------

・ プロフィール

発見日 2002年3月13日
発見光度 18.5等
発見者 Lincoln Laboratory Near-Earth Asteroid Research project

・ 軌道要素

T 2001 Dec. 19.2307 TT                                  MPC
q   2.635918             (2000.0)            P               Q
n   0.0595996      Peri.  166.9259      -0.7354490      -0.6762263
a   6.490931       Node   330.3837      +0.6136125      -0.6378891
e   0.593908       Incl.    4.9697      +0.2873925      -0.3685316
P  16.5
>From 52 observations 2002 Mar. 10-May 12.

・ 星図

・ 光度変化

        m1 = 12.5 + 5 logΔ + 10.0 log r

---------------------------------------------------------------------

軌道要素は Dr. Brian G. Marsden の計算によるもので、 M.P.E.C. 2002-K29 に掲載されたものです。
星図は StellaNavigator Ver.2.0 for Windows (アストロアーツ 編著 / アスキー出版局刊) で作成したものです。
光度グラフはComet for Windowsで作成したものです。

---------------------------------------------------------------------

Copyright(C) Seiichi Yoshida (comet@aerith.net). All rights reserved.